COSMOS 2013

Satellite information

Favourite Embed

Satellite Type and Status

PAYLOADIN ORBIT

Key statistics

Satellite COSMOS 2013 at a glance.

Uptime

13419

Days in orbit

Revolutions

≈ 12.5

Per day

Orbit

LEO

Low Earth Orbit

Inclination

74.0

Latest

Satellite identification and parameters

Extended collection of information and parameters for COSMOS 2013.

Object identification

Identified? True

Debris? False

Object name: COSMOS 2013

International designator: 1989-025F

Object number (NORAD): 19907

Object ID (CCSDS): 19907

Country: COMMONWEALTH OF INDEPENDENT STATES (CIS)

Current information (Y/N): Y

RCS size: MEDIUM

Orbital parameters

Period: 115.368 minutes

Inclination: 74.0095 deg

SMA: 7850.277 km

Apoapsis: 1480.288 km

Periapsis: 1463.996 km

RAAN: 245.8224 deg

Eccentricy: 0.00103771

Argument of periapsis: 282.4989 deg

Mean anomaly: 145.394 deg

Mean motion: 12.48174483 rev/day

Mean motion (dot): 0.00000005 rev/day2

B* drag term: 0.00014111014 1/REarth

Two-line elements (TLE)

Creation date: Dec. 19, 2025, 2:08 a.m.

Reference frame: TEME

Reference center: EARTH

Epoch: Dec. 18, 2025, 8:14 p.m. UTC

TLE line 0: 0 COSMOS 2013

TLE line 1: 1 19907U 89025F 25352.84325381 .00000005 00000-0 14111-3 0 9997

TLE line 2: 2 19907 74.0095 245.8224 0010377 282.4989 145.3940 12.48174483673947

Live tracking on map

Real-time ground track for satellite COSMOS 2013.

In-orbit conjunctions

There are no conjunctions computed for COSMOS 2013, at the moment. Check back to stay up to date, as we update our databases every day.

Go to all conjunctions

Associated space launch

Military communications satellites

COSMOS 2013 was lifted into orbit during the mission ‘Kosmos-3M | Strela-1M 337-344’, on board a Kosmos-3M space rocket.

The launch took place on March 24, 1989, 1:38 p.m. from 132/2.

For more information about the launch, click the button.

Launch to space Kosmos-3M | Strela-1M 337-344
Kosmos-3M | Strela-1M 337-344

Agency: N/A

Status: Launch Successful

Launch date: March 24, 1989, 1:38 p.m. UTC

Rocket: Kosmos-3M

Launch pad: 132/2

Location: Plesetsk Cosmodrome, Russian Federation

...

Latest news about this satellite

There are no fresh news available about this satellite. Check back as we update our databases every day.


Newsletter sign-up

Weekly statistics, charts and insights to help you stay on top of the space industry.